Regional Weather Roundup
Issued by NWS

Home | Current Version | Previous Version | Graphics & Text | Print | Product List | Glossary On
Versions: 1 2 3 4 5 6 7 8 9 10 11 12 13 14 15 16 17 18 19 20 21 22 23 24 25 26 27 28 29 30 31 32 33 34 35 36 37 38 39 40 41 42 43 44 45 46 47 48 49 50
000
ASUS45 KTFX 211204
RWRMT
MONTANA HOURLY WEATHER ROUNDUP
NATIONAL WEATHER SERVICE GREAT FALLS MT
504 AM MST SUN DEC 21 2014

NOTE: "FAIR" INDICATES FEW OR NO CLOUDS BELOW 12000 FEET WITH NO
SIGNIFICANT WEATHER AND/OR OBSTRUCTIONS TO VISIBILITY.

* THESE STATIONS ARE NOT UNDER NWS QUALITY CONTROL. THEY DO NOT
   REPORT WEATHER SUCH AS PRECIPITATION OR FOG.

MTZ001>007-043-211300-
WEST OF THE DIVIDE
CITY           SKY/WX    TMP DP  RH WIND       PRES   REMARKS
KALISPELL      LGT RAIN  36  36 100 W6        29.43S WCI  31
MISSOULA       FOG       32  32 100 CALM      29.51F VSB 3
BUTTE          CLOUDY    34  28  79 N6        29.53F WCI  29
MULLAN PASS    LGT SNOW  34  32  92 W12G22    29.47R VSB 1 1/2 WCI  25
* ESSEX        N/A       32  31  96 N5         N/A   WCI  27
* LINCOLN      N/A       32  31  96 NW2        N/A
* LOOKOUT PASS N/A       33  33 100 NE6G19     N/A   WCI  27
* POLSON       N/A       36  36 100 S3G9       N/A
* RONAN APT    MOCLDY    37  37 100 SE14G20    N/A   WCI  28
* SEELEY LAKE  N/A       28  27  96 N/A        N/A
* THOMP F APT  MOCLDY    28  27  96 S3G10      N/A
* YAAK HILL    N/A       35  33  92 N/A        N/A
$$

MTZ008-052>055-211300-
SOUTHWEST MONTANA
CITY           SKY/WX    TMP DP  RH WIND       PRES   REMARKS
BOZEMAN        CLOUDY    39  28  65 CALM      29.52F
DILLON         CLOUDY    37  30  76 SW13      29.58F WCI  29
* W YELLOWSTON CLOUDY    28  26  92 SW5G13     N/A   WCI  22
* THREE FORKS  PTCLDY    41  41 100 N/A        N/A
* BOULDER HILL N/A       32  29  89 SW20G26    N/A   WCI  20
* MONIDA PASS  N/A       27  27 100 SE16       N/A   WCI  15
* RAYNOLDS PAS N/A       32  15  49 SE18G26    N/A   WCI  21
* WHITEHALL    N/A       40  31  70 W18G29     N/A   WCI  31
* WISE RIVER   N/A       30  29  96 N/A        N/A
$$

MTZ009>010-012-014-046-048-049-054-211300-
EAST SLOPES AND CENTRAL MONTANA
CITY           SKY/WX    TMP DP  RH WIND       PRES   REMARKS
CUT BANK       MOCLDY    37  30  76 W18G23    29.27F WCI  27
GREAT FALLS    PTCLDY    43  30  60 SW21G30   29.35F
HELENA         MOCLDY    34  30  85 N3        29.46F
* DEARBORN     N/A       43  34  71 S4G11      N/A
* EAST GLACIER N/A       37  30  76 W30G41     N/A   WCI  24
* MONARCH      N/A       37  24  59 SW17G24    N/A   WCI  27
* PENDROY      N/A       40  30  68 NE4        N/A
* ROGERS PASS  N/A       32  31  96 SE14G24    N/A   WCI  22
* SWEET GRASS  N/A       30  29  96 S16        N/A   WCI  19
$$

MTZ011-013-016-021-035-040-045-047-050-051-211300-
NORTH CENTRAL MONTANA
CITY           SKY/WX    TMP DP  RH WIND       PRES   REMARKS
HAVRE          CLOUDY    25  19  78 E8        29.32F WCI  16
LEWISTOWN      CLOUDY    41  30  65 SW21      29.39F
* N BAR RANCH  CLOUDY    32  23  69 NW5       29.41F WCI  27
* CHESTER      N/A       28  24  85 N2         N/A
* DENTON       N/A       37  29  73 S2         N/A
* GEYSER       N/A       42  27  55 SW35G42    N/A
* JUDITH GAP   N/A       37  32  82 SW14G20    N/A   WCI  28
* LOMA         N/A       40  30  68 S3G10      N/A
$$

MTZ017>020-022>027-061-062-211300-
NORTHEAST MONTANA
CITY           SKY/WX    TMP DP  RH WIND       PRES   REMARKS
GLASGOW        PTCLDY    21  18  88 E13       29.43F WCI   8
GLENDIVE       CLEAR     19  18  96 SW7       29.52F WCI  10
JORDAN         PTCLDY    19  18  96 SE3       29.44F
SIDNEY         CLEAR     18  16  92 CALM      29.54F
WOLF POINT     CLEAR     18  14  84 NE6       29.49F WCI  10
* BEAVER HILL  N/A       32  24  72 S14        N/A   WCI  22
* CIRCLE       N/A       31  25  78 S4G10      N/A
* LINDSAY DVD  N/A       24  21  88 SE4        N/A
* SACO         N/A       20  18  92 E6         N/A   WCI  12
$$

MTZ028>042-056>058-211300-
SOUTHCENTRAL AND SOUTHEAST MONTANA
CITY           SKY/WX    TMP DP  RH WIND       PRES   REMARKS
BAKER          CLEAR     21  19  92 E7        29.53F WCI  12
BILLINGS       CLOUDY    37  23  57 SW10      29.47F WCI  30
LIVINGSTON     CLOUDY    45  27  49 SW30G39   29.48F
MILES CITY     CLOUDY    28  23  81 S9        29.50F WCI  19
* LAUREL APT   CLOUDY    39  19  45 SW6        N/A   WCI  35
* ROUNDUP APT  CLOUDY    34  19  54 N/A        N/A
* ALZADA       N/A       31  23  72 E5         N/A   WCI  26
* HYSHAM       N/A       37  18  46 W4         N/A
* LAME DEER    N/A       35  17  48 SW9        N/A   WCI  28
* REED POINT   N/A       27  25  92 N/A        N/A
* ROSCOE HILL  N/A       42  15  33 SW22G39    N/A
$$

REGIONAL REPORTS...DAKOTAS
CITY           SKY/WX    TMP DP  RH WIND       PRES   REMARKS
WILLISTON      PTCLDY    18  14  84 CALM      29.54F
DICKINSON      CLEAR     27  19  72 S10       29.53F WCI  18
BEACH          FAIR      25  23  92 SE7       29.53F WCI  17
CROSBY         CLEAR     19  19 100 S8        29.54F WCI   9
WATFORD CITY   CLEAR     18  16  92 CALM      29.52F
BISMARCK       CLOUDY    19  18  96 CALM      29.66F
GRAND FORKS    FOG       30  28  92 S18G24    29.72F WCI  18
FARGO          FOG       32  28  85 S12       29.77F WCI  23
BUFFALO SD     CLEAR     27  19  72 SE7       29.49F WCI  19
RAPID CITY     CLEAR     25  19  78 W5        29.59F WCI  19
$$

REGIONAL REPORTS...WYOMING/IDAHO/WASHINGTON
CITY           SKY/WX    TMP DP  RH WIND       PRES   REMARKS
GILLETTE       CLEAR     34  23  64 SW18      29.53F WCI  23
SHERIDAN       CLOUDY    25  18  75 NW8       29.50F WCI  16
CODY           CLOUDY    39  27  62 CALM      29.55F
YELLOWSTONE LA MOCLDY    27  21  78 VRB6      29.68F WCI  20
SALMON         CLOUDY    34  30  85 N9        29.61F WCI  27
MULLAN PASS    LGT SNOW  34  32  92 W12G22    29.47S VSB 1 1/2 WCI  25
SAND POINT     LGT RAIN  36  36 100 CALM      29.48R
SPOKANE        CLOUDY    45  43  93 W23G31    29.53R

$$



USA.gov is the U.S. government's official web portal to all federal, state and local government web resources and services.